DECAYED

STARLINK-1749, 46589 (Decayed)

Orbit data source: Space-Track

STARLINK-1749, 46589 was a payload satellite owned by SpaceX/Seattle (US) in LEO that was launched on Tue, 06 Oct 2020 UTC via an FALCON 9 launch vehicle from the Air Force Eastern Test Range (AFETR). Payload-class satellites include a variety of spacecraft equipped with specific instruments for various scientific and technological missions. These include communications satellites like Starlink; space stations such as the ISS; scientific satellites like the Hubble; Earth observation satellites from companies like Planet Labs, Umbra, and HawkEye 360; GPS; miniature CubeSats for education and research; and military/defense satellites.

Not visible in the next 10 days
Identifier
46589, 2020-070BK
Orbit
Decayed
Country
Flag of USUS
Related business
Manufacturer
SpaceX/Seattle
Mission
Decayed Commercial Communications
Bus & Motor
STARLINK, Unknown motor
Mass
260 kg wet, ~248 kg dry
Launch date (UTC)
2020-10-06 (5 years ago)
Launch vehicle
FALCON 9
Launch site
Air Force Eastern Test Range (AFETR)
Object type
Payload
Rocket body
Debris
Shape & HBR
Box + 1 Pan, 10.1 m
Radar Cross Section
13.562 m², Large (>1 m²)

Expand to show TLE details & history
Last TLE update: 1 year ago

TLE from 1 year ago
0 STARLINK-1749
1 46589U 20070BK  25078.94443245  .19770125  12497-4  47800-3 0  9999
2 46589  53.0189 245.7734 0007487 259.3028 239.2483 16.45663399247205
Epoch: 2025-03-19T22:39Z
TLE epoch observation values (Epoch: 2025-03-19T22:39:58.963Z)
Latitude
32.08244°
Longitude
-119.93878°
Altitude
155.313 km
Speed
7.816 km/s
True Right ascension
02h 31m 07s
True Declination
31° 54' 49"
Sunlit
Object was in daylight at epoch
Visualization orbit readout
Latitude
Unknown
Longitude
Unknown
Altitude
Unknown
Speed
Unknown
Apparent Right ascension
Unknown
Apparent Declination
Unknown
Sunlit
N/A
Visualization observer readout
Local Sidereal Time
21:48:53
Azimuth
Unknown
Elevation
Unknown
Doppler factor
Unknown
Orbital elements
Apogee altitude
155.961 km
Perigee altitude
146.185 km
Semi-major axis
6,529.21 km
Eccentricity
0.00075
Inclination
53.0189°
RAAN
245.7734°
Arg. of periapsis
259.3028°
True anomaly
239.1746°
Mean anomaly
239.2483°
Eccentric anomaly
239.21145°
Mean motion
4.11389 °/min
Orbital period
87.51 mins
BSTAR
0.000478
Loading maneuver chart data...
Computing Atmospheric mass density...
Loading historical data...
Loading historical data...
Loading historical data...
Loading historical data...
Loading historical data...
Loading historical data...
Loading historical data...

Documentation

Showing up to 5 results
|